FLOCK 4H-1 (66704 NORAD) Tracking and Keplerian Element Data

This shows tracking and keplerian element data for the satellite.

Feedback or suggestion? Click here.




ElementValue
Catalog66704
NameFLOCK 4H-1
Epoch Orbit325
Epoch Day354.18178078
Epoch Year2025
RAAN65.826
Inclination97.4387
Eccentricity0.00018
Argument of Perigee180.813
Mean Anonmoly179.3102
Mean Motion15.18047831
Decay Rate6.411E-05
L11 66704U 25276AQ 25354.18178078 .00006411 00000+0 31813-3 0 9994
L22 66704 97.4387 65.8260 0001800 180.8130 179.3102 15.18047831 3251



Live tracking and technical data element details for FLOCK 4H-1 (NORAD 66704). FLOCK 4H-1 can be tracked NOW for your location showing map with azimuth and elevation plus other details from your city location.







IsCatalogInMostPopularTable: catalog: 66704, numindb: 25
Update: records affected: 1



GetName: 66704 FLOCK 4H-1

Hit Count: updated at: Mon, 20 Apr 2026 10:00:04 GMT